User: anonymous   Login
Location: Unspecified
(0.0000°N, 0.0000°E)
Time: 10:42:40
(UTC+02:00)
Language:

ARIANE 5 R/B - Orbit

View from above orbital plane
View from above orbital plane
View from above satellite
View from above satellite

Ground track
Ground track

The orbit data is extracted from the following two-line orbital elements,

1 29646U 06054D   16270.72062997  .00006992  00000-0  15955-2 0  9993
2 29646   2.8551  82.0760 7107296  79.3025 347.5811  2.50483116 85092
Epoch (UTC): 26 September 2016 17:17:42
Eccentricity: 0.7107296
inclination: 2.8551°
perigee height: 247 km
apogee height: 32801 km
right ascension of ascending node: 82.0760°
argument of perigee: 79.3025°
revolutions per day: 2.50483116
mean anomaly at epoch: 347.5811°
orbit number at epoch: 8509

The dashed part of the orbit path shows where the satellite is in the earth's shadow,  

DLR